When you browse on this site, cookies collect data to enhance your experience and personalize the content and advertising you see.
Visit our Privacy Policy to learn more. By continuing to use the site, you agree to this use of cookies and data.
  • In Hungary
  • List of Countries
  • For 7 days
  • Water Temperature
  • Satellite Maps
  • Weather Map
  • News
  • Weather Widgets
  • user-avatar
    Login

    Hourly Weather Pulandian

    Today, 21 April, Sunday

    Time Temperature Precipitation Wind Pressure Humidity
    00:00 +10°C° 0 mm 1 mps 759 mmHg 80%
    01:00 +10°C° 0 mm 1 mps 759 mmHg 81%
    02:00 +10°C° 0 mm 1 mps 759 mmHg 81%
    03:00 +9°C° 0 mm 1 mps 759 mmHg 82%
    04:00 +9°C° 0 mm 1 mps 759 mmHg 82%
    05:00 +9°C° 0 mm 1 mps 759 mmHg 83%
    06:00 +10°C° 0 mm 1 mps 759 mmHg 76%
    07:00 +10°C° 0 mm 2 mps 760 mmHg 69%
    08:00 +13°C° 0 mm 2 mps 760 mmHg 58%
    09:00 +15°C° 0 mm 2 mps 760 mmHg 47%
    10:00 +17°C° 0 mm 2 mps 760 mmHg 36%
    11:00 +19°C° 0 mm 2 mps 760 mmHg 25%
    12:00 +20°C° 0 mm 2 mps 760 mmHg 23%
    13:00 +21°C° 0 mm 2 mps 759 mmHg 22%
    14:00 +23°C° 0 mm 2 mps 759 mmHg 22%
    15:00 +21°C° 0 mm 2 mps 759 mmHg 24%
    16:00 +20°C° 0 mm 3 mps 759 mmHg 26%
    17:00 +20°C° 0 mm 3 mps 759 mmHg 28%
    18:00 +18°C° 0 mm 3 mps 759 mmHg 31%
    19:00 +17°C° 0 mm 2 mps 759 mmHg 33%
    20:00 +15°C° 0 mm 2 mps 759 mmHg 36%
    21:00 +15°C° 0 mm 2 mps 759 mmHg 37%
    22:00 +14°C° 0 mm 1 mps 759 mmHg 39%
    23:00 +14°C° 0 mm 1 mps 759 mmHg 40%

    Tomorrow, 22 April, Monday

    Time Temperature Precipitation Wind Pressure Humidity
    00:00 +13°C° 0 mm 1 mps 759 mmHg 41%
    01:00 +13°C° 0 mm 1 mps 759 mmHg 41%
    02:00 +13°C° 0 mm 1 mps 759 mmHg 42%
    03:00 +12°C° 0 mm 1 mps 759 mmHg 42%
    04:00 +12°C° 0 mm 1 mps 759 mmHg 43%
    05:00 +12°C° 0 mm 1 mps 759 mmHg 43%
    06:00 +13°C° 0 mm 2 mps 759 mmHg 45%
    07:00 +14°C° 0 mm 3 mps 759 mmHg 46%
    08:00 +16°C° 0 mm 3 mps 759 mmHg 48%
    09:00 +18°C° 0 mm 4 mps 759 mmHg 49%
    10:00 +19°C° 0 mm 4 mps 759 mmHg 50%
    11:00 +20°C° 0 mm 5 mps 759 mmHg 52%
    12:00 +21°C° 0 mm 5 mps 759 mmHg 51%
    13:00 +21°C° 0 mm 5 mps 759 mmHg 50%
    14:00 +21°C° 0 mm 6 mps 758 mmHg 49%
    15:00 +21°C° 0 mm 5 mps 758 mmHg 50%
    16:00 +20°C° 0 mm 5 mps 758 mmHg 51%
    17:00 +19°C° 0 mm 4 mps 758 mmHg 52%
    18:00 +18°C° 0 mm 4 mps 758 mmHg 55%
    19:00 +17°C° 0 mm 4 mps 758 mmHg 57%
    20:00 +16°C° 0 mm 3 mps 758 mmHg 60%
    21:00 +16°C° 0 mm 3 mps 758 mmHg 64%
    22:00 +16°C° 0 mm 3 mps 758 mmHg 67%
    23:00 +14°C° 0 mm 3 mps 758 mmHg 71%

    Day after tomorrow, 23 April, Tuesday

    Time Temperature Precipitation Wind Pressure Humidity
    00:00 +14°C° 0 mm 3 mps 758 mmHg 75%
    01:00 +14°C° 0 mm 3 mps 758 mmHg 80%
    02:00 +14°C° 0 mm 3 mps 758 mmHg 84%
    03:00 +15°C° 0 mm 2 mps 758 mmHg 86%
    04:00 +14°C° 0 mm 2 mps 757 mmHg 88%
    05:00 +14°C° 0 mm 1 mps 757 mmHg 90%
    06:00 +15°C° 0 mm 1 mps 758 mmHg 84%
    07:00 +16°C° 0 mm 2 mps 758 mmHg 78%
    08:00 +17°C° 0 mm 2 mps 758 mmHg 72%
    09:00 +19°C° 0 mm 3 mps 758 mmHg 67%
    10:00 +20°C° 0 mm 3 mps 758 mmHg 61%
    11:00 +22°C° 0 mm 4 mps 759 mmHg 56%
    12:00 +22°C° 0 mm 4 mps 758 mmHg 54%
    13:00 +22°C° 0 mm 4 mps 758 mmHg 52%
    14:00 +22°C° 0 mm 4 mps 757 mmHg 51%
    15:00 +21°C° 0 mm 4 mps 757 mmHg 54%
    16:00 +20°C° 0 mm 4 mps 757 mmHg 58%
    17:00 +19°C° 0 mm 4 mps 757 mmHg 61%
    18:00 +18°C° 0 mm 4 mps 757 mmHg 68%
    19:00 +17°C° 0 mm 3 mps 757 mmHg 75%
    20:00 +14°C° 0 mm 3 mps 757 mmHg 82%
    21:00 +15°C° 0 mm 2 mps 757 mmHg 84%
    22:00 +15°C° 0 mm 2 mps 757 mmHg 86%
    23:00 +14°C° 0 mm 2 mps 757 mmHg 87%

    24 April, Wednesday

    Time Temperature Precipitation Wind Pressure Humidity
    00:00 +14°C° 0 mm 1 mps 757 mmHg 88%
    01:00 +14°C° 0 mm 1 mps 757 mmHg 90%
    02:00 +14°C° 0 mm 1 mps 756 mmHg 91%
    03:00 +14°C° 0 mm 1 mps 756 mmHg 90%
    04:00 +14°C° 0 mm 2 mps 756 mmHg 90%
    05:00 +14°C° 0 mm 2 mps 756 mmHg 89%
    06:00 +14°C° 0 mm 3 mps 757 mmHg 81%
    07:00 +17°C° 0 mm 4 mps 757 mmHg 72%
    08:00 +17°C° 0 mm 5 mps 757 mmHg 64%
    09:00 +19°C° 0 mm 6 mps 757 mmHg 53%
    10:00 +20°C° 0 mm 7 mps 757 mmHg 42%
    11:00 +21°C° 0 mm 7 mps 758 mmHg 31%
    12:00 +22°C° 0 mm 7 mps 757 mmHg 30%
    13:00 +22°C° 0 mm 6 mps 757 mmHg 29%
    14:00 +23°C° 0 mm 6 mps 757 mmHg 28%
    15:00 +22°C° 0 mm 6 mps 757 mmHg 29%
    16:00 +21°C° 0 mm 7 mps 757 mmHg 31%
    17:00 +20°C° 0 mm 8 mps 757 mmHg 32%
    18:00 +18°C° 0 mm 7 mps 757 mmHg 29%
    19:00 +16°C° 0 mm 7 mps 757 mmHg 25%
    20:00 +15°C° 0 mm 6 mps 758 mmHg 21%
    21:00 +15°C° 0 mm 6 mps 758 mmHg 22%
    22:00 +14°C° 0 mm 6 mps 757 mmHg 23%
    23:00 +13°C° 0 mm 6 mps 757 mmHg 24%

    25 April, Thursday

    Time Temperature Precipitation Wind Pressure Humidity
    00:00 +13°C° 0 mm 5 mps 757 mmHg 24%
    01:00 +13°C° 0 mm 4 mps 757 mmHg 24%
    02:00 +13°C° 0 mm 3 mps 757 mmHg 24%
    03:00 +12°C° 0 mm 4 mps 757 mmHg 24%
    04:00 +12°C° 0 mm 5 mps 757 mmHg 23%
    05:00 +12°C° 0 mm 5 mps 757 mmHg 23%
    06:00 +12°C° 0.3 mm 5 mps 758 mmHg 28%
    07:00 +11°C° 0.3 mm 4 mps 758 mmHg 32%
    08:00 +11°C° 0.3 mm 3 mps 758 mmHg 37%
    09:00 +13°C° 0 mm 3 mps 758 mmHg 36%
    10:00 +14°C° 0 mm 3 mps 759 mmHg 34%
    11:00 +16°C° 0 mm 3 mps 759 mmHg 33%
    12:00 +16°C° 0 mm 3 mps 758 mmHg 36%
    13:00 +17°C° 0 mm 4 mps 758 mmHg 38%
    14:00 +17°C° 0 mm 4 mps 758 mmHg 41%
    15:00 +15°C° 0 mm 4 mps 758 mmHg 48%
    16:00 +13°C° 0 mm 5 mps 758 mmHg 56%
    17:00 +12°C° 0 mm 5 mps 758 mmHg 64%
    18:00 +10°C° 0 mm 5 mps 759 mmHg 67%
    19:00 +10°C° 0 mm 4 mps 759 mmHg 70%
    20:00 +8°C° 0 mm 4 mps 759 mmHg 72%
    21:00 +9°C° 0 mm 3 mps 759 mmHg 73%
    22:00 +9°C° 0 mm 2 mps 759 mmHg 73%
    23:00 +9°C° 0 mm 1 mps 759 mmHg 73%

    26 April, Friday

    Time Temperature Precipitation Wind Pressure Humidity
    00:00 +9°C° 0 mm 1 mps 759 mmHg 75%
    01:00 +9°C° 0 mm 1 mps 759 mmHg 77%
    02:00 +8°C° 0 mm 2 mps 759 mmHg 79%
    03:00 +8°C° 0 mm 2 mps 760 mmHg 74%
    04:00 +8°C° 0 mm 2 mps 760 mmHg 69%
    05:00 +8°C° 0 mm 3 mps 760 mmHg 65%
    06:00 +10°C° 0 mm 3 mps 760 mmHg 54%
    07:00 +11°C° 0 mm 4 mps 761 mmHg 43%
    08:00 +12°C° 0 mm 4 mps 761 mmHg 33%
    09:00 +14°C° 0 mm 5 mps 761 mmHg 29%
    10:00 +15°C° 0 mm 5 mps 761 mmHg 26%
    11:00 +17°C° 0 mm 6 mps 761 mmHg 23%
    12:00 +17°C° 0 mm 5 mps 761 mmHg 22%
    13:00 +19°C° 0 mm 5 mps 761 mmHg 22%
    14:00 +19°C° 0 mm 5 mps 761 mmHg 21%
    15:00 +19°C° 0 mm 5 mps 761 mmHg 22%
    16:00 +19°C° 0 mm 5 mps 761 mmHg 22%
    17:00 +17°C° 0 mm 5 mps 761 mmHg 23%
    18:00 +17°C° 0 mm 4 mps 761 mmHg 25%
    19:00 +16°C° 0 mm 3 mps 762 mmHg 27%
    20:00 +13°C° 0 mm 3 mps 762 mmHg 29%
    21:00 +13°C° 0 mm 3 mps 762 mmHg 30%
    22:00 +13°C° 0 mm 2 mps 763 mmHg 32%
    23:00 +13°C° 0 mm 2 mps 763 mmHg 33%
    Show more